Location: Bratislava
(48.1500°N, 17.1170°E)
Time: 05:55:52
(UTC+01:00)

Amateur Radio Satellites - All Passes

Search period start: 18 December 2017 05:25
Search period end: 19 December 2017 05:25
Location: Bratislava, 48.1500°N, 17.1170°E

Satellite Date Start Highest point End Downlink Frequencies (MHz)
Time Altitude Azimuth
STARS 18 Dec 05:29:56 05:34:01 38° 262° (W) 05:38:08 437.465
CUTE 1.7 + AOD 2 18 Dec 05:33:39 05:34:37 11° 86° (E) 05:35:36 437.475
AO-7 18 Dec 05:34:55 05:42:02 32° 309° (NW) 05:49:08 .
BEESAT 2 18 Dec 05:37:21 05:39:56 17° 248° (WSW) 05:42:30 435.950
YUBILEINY 18 Dec 05:51:11 05:54:40 13° 316° (NW) 05:58:11 435.215
NUDT-PHONESAT 18 Dec 05:53:14 05:56:48 39° 98° (E) 06:00:20 437.300
LilacSat-2 18 Dec 05:55:26 05:59:19 68° 101° (E) 06:03:10 437.200
AO-85 18 Dec 05:56:45 06:01:17 44° 240° (WSW) 06:06:07 145.980
DOVE 4 18 Dec 05:58:27 06:02:15 27° 295° (WNW) 06:05:52 437.250
KAITUO 1B 18 Dec 06:03:27 06:07:13 55° 101° (E) 06:10:55 145.475/437.950
XW-2D 18 Dec 06:04:45 06:08:38 83° 103° (ESE) 06:12:28 145.860 - 145.880
FO-29 18 Dec 06:15:17 06:22:27 41° 62° (ENE) 06:29:29 435.910
HO-68 18 Dec 06:16:58 06:23:30 36° 96° (E) 06:29:58 435.675
XW-2B 18 Dec 06:20:49 06:24:40 69° 285° (WNW) 06:28:29 145.730 - 145.750
XW-2F 18 Dec 06:29:38 06:33:25 57° 287° (WNW) 06:37:10 145.980 - 146.000
CUTE-I 18 Dec 06:30:57 06:36:19 89° 109° (ESE) 06:41:38 437.470
SEEDS 18 Dec 06:36:49 06:40:34 29° 95° (E) 06:44:15 437.485
AAUSAT CUBESAT 2 18 Dec 06:45:09 06:47:49 16° 90° (E) 06:50:26 437.432
XW-2C 18 Dec 06:48:44 06:52:14 33° 291° (WNW) 06:55:43 145.795 - 145.815
UWE-3 18 Dec 06:49:00 06:52:31 23° 93° (E) 06:56:05 435.000/436.395/437.385
NO-84 18 Dec 06:50:44 06:53:44 48° 336° (NNW) 06:56:59 435.350 FM
STRAND 1 18 Dec 06:55:57 07:00:53 48° 261° (W) 07:05:51 437.568
CUBEBUG 2 18 Dec 06:56:42 07:00:50 46° 99° (E) 07:05:04 437.445
XW-2A 18 Dec 07:04:28 07:07:11 22° 94° (E) 07:09:54 145.665 - 145.685
ZACube-1 18 Dec 07:05:55 07:09:07 20° 92° (E) 07:12:22 437.345
CUTE 1.7 + AOD 2 18 Dec 07:06:45 07:11:04 87° 285° (WNW) 07:15:21 437.475
O/OREOS (USA 219) 18 Dec 07:13:54 07:18:09 40° 108° (ESE) 07:22:26 437.305
Oscar 11 18 Dec 07:19:34 07:22:13 16° 89° (E) 07:24:52 .
NUDT-PHONESAT 18 Dec 07:27:40 07:30:23 19° 296° (WNW) 07:33:04 437.300
AO-7 18 Dec 07:30:25 07:32:12 11° 334° (NNW) 07:34:00 .
LilacSat-2 18 Dec 07:31:12 07:33:05 13° 300° (WNW) 07:34:58 437.200
AO-73 18 Dec 07:36:58 07:40:58 34° 96° (E) 07:45:03 145.935
KAITUO 1B 18 Dec 07:38:34 07:40:46 15° 298° (WNW) 07:42:57 145.475/437.950
XW-2D 18 Dec 07:41:03 07:42:11 11° 301° (WNW) 07:43:18 145.860 - 145.880
TIGRISAT 18 Dec 07:45:13 07:48:32 23° 64° (ENE) 07:51:51 435.000
UNISAT 6 18 Dec 07:49:15 07:52:49 26° 65° (ENE) 07:56:23 437.425
FO-29 18 Dec 07:59:34 08:07:13 56° 261° (W) 08:14:50 435.910
HO-68 18 Dec 08:04:33 08:11:28 53° 296° (WNW) 08:18:20 435.675
CUTE-I 18 Dec 08:12:21 08:15:39 17° 305° (NW) 08:18:55 437.470
SEEDS 18 Dec 08:12:28 08:16:14 31° 293° (WNW) 08:19:56 437.485
AAUSAT CUBESAT 2 18 Dec 08:19:31 08:23:35 53° 288° (WNW) 08:27:37 437.432
UWE-3 18 Dec 08:25:03 08:29:06 40° 290° (WNW) 08:33:15 435.000/436.395/437.385
NO-84 18 Dec 08:28:44 08:31:31 25° 358° (N) 08:34:31 435.350 FM
CUBEBUG 2 18 Dec 08:33:58 08:37:12 21° 296° (WNW) 08:40:30 437.445
XW-2A 18 Dec 08:36:56 08:39:53 27° 291° (WNW) 08:42:49 145.665 - 145.685
ZACube-1 18 Dec 08:41:25 08:45:39 49° 289° (WNW) 08:49:57 437.345
CUTE 1.7 + AOD 2 18 Dec 08:44:40 08:46:12 12° 303° (WNW) 08:47:44 437.475
DELFI C3 18 Dec 08:46:12 08:49:26 24° 94° (E) 08:52:38 145.870
O/OREOS (USA 219) 18 Dec 08:53:41 08:57:41 29° 307° (NW) 09:01:40 437.305
PRISM 18 Dec 08:54:10 08:58:00 37° 68° (ENE) 09:01:51 437.425
Oscar 11 18 Dec 08:54:26 08:58:46 61° 287° (WNW) 09:03:03 .
AO-73 18 Dec 09:13:22 09:17:07 29° 294° (WNW) 09:20:56 145.935
EO-79 18 Dec 09:19:03 09:20:00 11° 56° (ENE) 09:20:57 145.935-145.965
TIGRISAT 18 Dec 09:20:59 09:25:01 41° 262° (W) 09:29:03 435.000
UNISAT 6 18 Dec 09:25:31 09:29:25 34° 263° (W) 09:33:20 437.425
nSIGHT-1 18 Dec 09:35:34 09:37:53 18° 139° (SE) 09:40:11 .
POLYITAN 1 18 Dec 09:41:05 09:43:48 17° 61° (ENE) 09:46:33 437.675
Max Valier Satellite 18 Dec 09:42:34 09:46:19 70° 102° (ESE) 09:50:02 145.860
AIST 2D 18 Dec 09:50:41 09:54:05 49° 72° (ENE) 09:57:32 435.315
FO-29 18 Dec 09:51:18 09:53:50 12° 281° (WNW) 09:56:21 435.910
HO-68 18 Dec 09:54:15 09:57:40 14° 318° (NW) 10:01:05 435.675
EO-88 18 Dec 10:01:33 10:05:14 80° 102° (ESE) 10:08:54 145.990 - 145.960
ESTCUBE 1 18 Dec 10:02:14 10:03:17 11° 86° (E) 10:04:19 437.505/2401.250
DUCHIFAT 1 18 Dec 10:05:17 10:08:31 22° 64° (ENE) 10:11:47 145.980
QB50P2 18 Dec 10:05:55 10:09:38 31° 67° (ENE) 10:13:22 145.880/145.840
NO-84 18 Dec 10:06:11 10:09:25 36° 19° (NNE) 10:12:54 435.350 FM
LO-87 18 Dec 10:20:30 10:22:57 17° 92° (E) 10:25:24 145.935 - 145.965
DELFI C3 18 Dec 10:20:40 10:24:13 32° 292° (WNW) 10:27:43 145.870
PRISM 18 Dec 10:30:01 10:33:22 23° 266° (W) 10:36:44 437.425
ISS 18 Dec 10:30:27 10:33:32 38° 147° (SSE) 10:36:38 437.550
BUGSAT 1 18 Dec 10:32:43 10:34:06 12° 58° (ENE) 10:35:30 437.445
NANOSAT C BR1 18 Dec 10:33:04 10:37:04 47° 70° (ENE) 10:41:05 145.865
EO-79 18 Dec 10:50:51 10:55:02 81° 75° (ENE) 10:59:14 145.935-145.965
Gurwin Techsat 1B 18 Dec 10:58:03 11:00:53 15° 53° (NE) 11:03:42 435.225
AO-7 18 Dec 11:06:47 11:09:51 12° 30° (NNE) 11:12:55 .
nSIGHT-1 18 Dec 11:10:31 11:13:43 89° 177° (S) 11:16:58 .
POLYITAN 1 18 Dec 11:15:04 11:19:10 57° 259° (W) 11:23:19 437.675
Max Valier Satellite 18 Dec 11:18:08 11:19:36 12° 300° (WNW) 11:21:05 145.860
Oscar 19 18 Dec 11:22:48 11:27:06 28° 62° (ENE) 11:31:26 437.125/150
AIST 2D 18 Dec 11:25:51 11:27:32 13° 270° (W) 11:29:15 435.315
SPROUT 18 Dec 11:27:34 11:30:40 19° 92° (E) 11:33:44 437.525
ESTCUBE 1 18 Dec 11:36:11 11:40:46 87° 102° (ESE) 11:45:19 437.505/2401.250
EO-88 18 Dec 11:37:34 11:38:17 10° 301° (WNW) 11:38:59 145.990 - 145.960
DUCHIFAT 1 18 Dec 11:40:03 11:43:58 40° 262° (W) 11:47:55 145.980
QB50P2 18 Dec 11:41:49 11:45:26 28° 265° (W) 11:49:04 145.880/145.840
NO-84 18 Dec 11:43:16 11:46:50 60° 217° (SW) 11:50:42 435.350 FM
AO-91 18 Dec 11:52:30 11:56:48 40° 70° (ENE) 12:00:43 145.960
LO-87 18 Dec 11:53:12 11:56:29 35° 290° (WNW) 11:59:45 145.935 - 145.965
YUBILEINY 18 Dec 11:55:27 12:02:48 28° 60° (ENE) 12:10:03 435.215
BUGSAT 1 18 Dec 12:04:49 12:08:50 85° 254° (WSW) 12:12:53 437.445
ISS 18 Dec 12:06:42 12:09:57 57° 345° (NNW) 12:13:13 437.550
NANOSAT C BR1 18 Dec 12:10:04 12:13:01 19° 268° (W) 12:16:00 145.865
RS-15 18 Dec 12:27:42 12:37:31 30° 102° (ESE) 12:47:14 29.354- 29.394
EO-79 18 Dec 12:30:11 12:31:22 11° 273° (W) 12:32:32 145.935-145.965
Gurwin Techsat 1B 18 Dec 12:34:41 12:40:00 79° 73° (ENE) 12:45:21 435.225
M-CUBED/EXP-1 PRIME 18 Dec 12:40:05 12:42:35 15° 50° (NE) 12:45:06 437.505
ITAMSAT 1 18 Dec 12:46:27 12:48:21 12° 51° (NE) 12:50:15 435.822/435.867
nSIGHT-1 18 Dec 12:47:02 12:50:08 43° 356° (N) 12:53:15 .
VELOX 1 18 Dec 12:52:20 12:56:46 82° 102° (ESE) 13:01:09 145.980
AO-7 18 Dec 12:52:52 13:00:17 38° 54° (NE) 13:07:45 .
Oscar 19 18 Dec 13:01:14 13:06:11 48° 261° (W) 13:11:12 437.125/150
SPROUT 18 Dec 13:02:42 13:06:47 46° 290° (WNW) 13:10:51 437.525
UKube-1 18 Dec 13:12:01 13:15:09 19° 92° (E) 13:18:16 .
ESTCUBE 1 18 Dec 13:14:37 13:16:55 14° 303° (WNW) 13:19:11 437.505/2401.250
50 SAT 18 Dec 13:19:01 13:21:53 32° 98° (E) 13:24:45 437.505
NO-84 18 Dec 13:22:30 13:23:34 11° 233° (SW) 13:24:38 435.350 FM
SO-50 18 Dec 13:24:04 13:26:44 16° 111° (ESE) 13:29:24 436.795
AO-91 18 Dec 13:29:35 13:33:20 24° 265° (W) 13:36:49 145.960
DX 1 18 Dec 13:35:30 13:39:45 51° 100° (E) 13:43:58 434.975-435.025
ISS 18 Dec 13:43:35 13:46:46 45° 5° (N) 13:49:57 437.550
MOZHAYETS 4 18 Dec 13:49:06 13:51:10 13° 87° (E) 13:53:13
YUBILEINY 18 Dec 13:51:48 14:00:39 80° 264° (W) 14:09:24 435.215
M-CUBED/EXP-1 PRIME 18 Dec 14:11:43 14:16:12 84° 68° (ENE) 14:20:53 437.505
Gurwin Techsat 1B 18 Dec 14:17:17 14:20:34 16° 272° (W) 14:23:52 435.225
ITAMSAT 1 18 Dec 14:21:42 14:26:51 65° 71° (ENE) 14:32:01 435.822/435.867
nSIGHT-1 18 Dec 14:23:27 14:26:39 62° 16° (NNE) 14:29:51 .
VELOX 1 18 Dec 14:30:19 14:32:36 14° 303° (WNW) 14:34:52 145.980
RS-15 18 Dec 14:36:07 14:48:31 88° 127° (SE) 15:00:44 29.354- 29.394
BEESAT 18 Dec 14:43:49 14:47:56 28° 95° (E) 14:52:01 436.000
AO-7 18 Dec 14:44:28 14:52:40 63° 255° (WSW) 15:00:59 .
UKube-1 18 Dec 14:47:15 14:51:25 48° 290° (WNW) 14:55:33 .
50 SAT 18 Dec 14:51:34 14:53:35 16° 295° (WNW) 14:55:35 437.505
SO-50 18 Dec 15:02:07 15:06:35 78° 310° (NW) 15:11:09 436.795
HO-68 18 Dec 15:08:28 15:10:03 11° 38° (NE) 15:11:38 435.675
DX 1 18 Dec 15:12:26 15:15:36 20° 299° (WNW) 15:18:44 434.975-435.025
ITUPSAT 1 18 Dec 15:14:36 15:19:16 52° 100° (E) 15:23:57 437.325
ISS 18 Dec 15:20:07 15:23:25 78° 207° (SSW) 15:26:43 437.550
CUBESAT XI-V 18 Dec 15:21:42 15:25:41 27° 93° (E) 15:29:40 437.345
MOZHAYETS 4 18 Dec 15:24:16 15:28:56 83° 283° (WNW) 15:33:33
DOVE 4 18 Dec 15:28:11 15:33:16 56° 72° (ENE) 15:38:09 437.250
XW-2B 18 Dec 15:34:22 15:35:06 10° 58° (ENE) 15:35:48 145.730 - 145.750
O/OREOS (USA 219) 18 Dec 15:41:20 15:44:50 21° 49° (NE) 15:48:18 437.305
XW-2F 18 Dec 15:41:55 15:43:23 12° 59° (ENE) 15:44:50 145.980 - 146.000
M-CUBED/EXP-1 PRIME 18 Dec 15:49:01 15:51:10 13° 268° (W) 15:53:21 437.505
YUBILEINY 18 Dec 15:50:26 15:55:59 19° 286° (WNW) 16:01:30 435.215
XW-2C 18 Dec 15:59:44 16:02:28 19° 64° (ENE) 16:05:14 145.795 - 145.815
nSIGHT-1 18 Dec 15:59:49 16:02:44 32° 215° (SW) 16:05:38 .
ITAMSAT 1 18 Dec 16:03:03 16:06:46 20° 269° (W) 16:10:30 435.822/435.867
CUTE-I 18 Dec 16:17:13 16:21:59 33° 64° (ENE) 16:26:45 437.470
BEESAT 18 Dec 16:21:22 16:25:48 39° 293° (WNW) 16:30:13 436.000
CUTE 1.7 + AOD 2 18 Dec 16:29:15 16:31:20 13° 59° (ENE) 16:33:25 437.475
NUDT-PHONESAT 18 Dec 16:35:21 16:38:37 30° 68° (ENE) 16:41:55 437.300
LilacSat-2 18 Dec 16:40:15 16:44:00 54° 72° (ENE) 16:47:47 437.200
AO-7 18 Dec 16:43:30 16:47:10 13° 277° (W) 16:50:51 .
KKS-1 18 Dec 16:44:15 16:48:15 32° 96° (E) 16:52:14 437.445
SO-50 18 Dec 16:44:32 16:47:47 19° 331° (NNW) 16:51:05 436.795
KAITUO 1B 18 Dec 16:46:18 16:49:51 42° 71° (ENE) 16:53:27 145.475/437.950
XW-2D 18 Dec 16:48:47 16:52:34 64° 73° (ENE) 16:56:22 145.860 - 145.880
HO-68 18 Dec 16:49:20 16:55:54 40° 60° (ENE) 17:02:29 435.675
RS-15 18 Dec 16:50:56 17:02:34 44° 334° (NNW) 17:13:55 29.354- 29.394
ITUPSAT 1 18 Dec 16:53:05 16:56:47 23° 299° (WNW) 17:00:29 437.325
ISS 18 Dec 16:57:24 16:59:28 16° 223° (SW) 17:01:32 437.550
CUBESAT XI-V 18 Dec 16:58:46 17:03:11 40° 292° (WNW) 17:07:34 437.345
MOZHAYETS 4 18 Dec 17:03:22 17:05:20 13° 304° (NW) 17:07:18
XW-2B 18 Dec 17:04:48 17:08:36 87° 254° (WSW) 17:12:28 145.730 - 145.750
DOVE 4 18 Dec 17:07:12 17:11:12 22° 268° (W) 17:15:08 437.250
XW-2F 18 Dec 17:13:08 17:16:54 74° 258° (WSW) 17:20:45 145.980 - 146.000
STARS 18 Dec 17:15:23 17:19:10 28° 95° (E) 17:22:55 437.465
O/OREOS (USA 219) 18 Dec 17:20:11 17:24:37 57° 249° (WSW) 17:28:59 437.305
SEEDS 18 Dec 17:31:33 17:35:19 32° 67° (ENE) 17:39:07 437.485
XW-2C 18 Dec 17:32:47 17:36:23 40° 262° (W) 17:40:02 145.795 - 145.815
AAUSAT CUBESAT 2 18 Dec 17:38:32 17:41:26 18° 62° (ENE) 17:44:19 437.432
XW-2A 18 Dec 17:39:34 17:41:25 14° 63° (ENE) 17:43:16 145.665 - 145.685
PCSat 18 Dec 17:43:21 17:48:40 60° 119° (ESE) 17:54:01 145.827
UWE-3 18 Dec 17:49:30 17:53:01 27° 66° (ENE) 17:56:33 435.000/436.395/437.385
CUTE-I 18 Dec 17:56:53 18:01:56 41° 262° (W) 18:07:00 437.470
CUBEBUG 2 18 Dec 17:58:07 18:02:11 57° 73° (ENE) 18:06:16 437.445
CUTE 1.7 + AOD 2 18 Dec 18:02:17 18:06:33 81° 257° (WSW) 18:10:52 437.475
ZACube-1 18 Dec 18:05:16 18:08:29 22° 64° (ENE) 18:11:45 437.345
NUDT-PHONESAT 18 Dec 18:09:29 18:12:29 23° 266° (W) 18:15:31 437.300
LilacSat-2 18 Dec 18:16:32 18:18:36 14° 270° (W) 18:20:42 437.200
Oscar 11 18 Dec 18:17:39 18:20:46 20° 62° (ENE) 18:23:52 .
KKS-1 18 Dec 18:20:52 18:24:45 30° 295° (WNW) 18:28:36 437.445
KAITUO 1B 18 Dec 18:21:29 18:24:01 17° 269° (W) 18:26:35 145.475/437.950
XW-2D 18 Dec 18:25:44 18:27:09 12° 272° (W) 18:28:35 145.860 - 145.880
SO-50 18 Dec 18:29:27 18:30:04 10° 356° (N) 18:30:41 436.795
AO-73 18 Dec 18:35:47 18:39:37 38° 69° (ENE) 18:43:31 145.935
HO-68 18 Dec 18:36:35 18:43:30 50° 260° (W) 18:50:29 435.675
BEESAT 3 18 Dec 18:39:40 18:43:17 34° 119° (ESE) 18:46:55 437.485
STARS 18 Dec 18:51:36 18:55:32 34° 293° (WNW) 18:59:27 437.465
STRAND 1 18 Dec 19:02:29 19:07:22 44° 99° (E) 19:12:13 437.568
FO-29 18 Dec 19:07:15 19:12:17 22° 86° (E) 19:16:51 435.910
SEEDS 18 Dec 19:07:20 19:11:00 28° 265° (W) 19:14:42 437.485
RS-15 18 Dec 19:07:53 19:18:53 36° 8° (N) 19:29:24 29.354- 29.394
XW-2A 18 Dec 19:10:31 19:13:45 44° 261° (W) 19:17:02 145.665 - 145.685
AAUSAT CUBESAT 2 18 Dec 19:12:25 19:16:30 52° 260° (W) 19:20:37 437.432
UWE-3 18 Dec 19:25:43 19:29:24 31° 264° (W) 19:33:08 435.000/436.395/437.385
PCSat 18 Dec 19:27:40 19:32:25 30° 319° (NW) 19:37:13 145.827
BEESAT 2 18 Dec 19:30:04 19:33:40 32° 118° (ESE) 19:37:19 435.950
DELFI C3 18 Dec 19:34:39 19:37:50 23° 65° (ENE) 19:41:00 145.870
CUBEBUG 2 18 Dec 19:36:45 19:39:11 15° 270° (W) 19:41:38 437.445
ZACube-1 18 Dec 19:40:41 19:44:34 39° 263° (W) 19:48:31 437.345
Oscar 11 18 Dec 19:52:19 19:56:32 52° 260° (W) 20:00:48 .
SO-50 18 Dec 20:09:56 20:12:32 15° 21° (NNE) 20:15:08 436.795
AO-73 18 Dec 20:12:47 20:16:01 22° 268° (W) 20:19:17 145.935
AO-85 18 Dec 20:15:17 20:18:26 23° 115° (ESE) 20:21:44 145.980
BEESAT 3 18 Dec 20:17:10 20:20:49 33° 318° (NW) 20:24:28 437.485
Max Valier Satellite 18 Dec 20:24:18 20:27:51 50° 72° (ENE) 20:31:27 145.860
EO-88 18 Dec 20:41:58 20:45:32 56° 73° (ENE) 20:49:08 145.990 - 145.960
STRAND 1 18 Dec 20:42:01 20:46:23 29° 297° (WNW) 20:50:43 437.568
FO-29 18 Dec 20:51:18 20:58:13 75° 289° (WNW) 21:04:14 435.910
LO-87 18 Dec 21:00:30 21:02:16 13° 62° (ENE) 21:04:04 145.935 - 145.965
ESTCUBE 1 18 Dec 21:04:08 21:07:02 17° 59° (ENE) 21:09:55 437.505/2401.250
BEESAT 2 18 Dec 21:07:38 21:11:21 35° 317° (NW) 21:15:07 435.950
TIGRISAT 18 Dec 21:08:19 21:12:10 29° 96° (E) 21:16:04 435.000
DELFI C3 18 Dec 21:08:42 21:12:24 35° 263° (W) 21:16:05 145.870
UNISAT 6 18 Dec 21:12:42 21:16:44 35° 97° (E) 21:20:50 437.425
PCSat 18 Dec 21:15:33 21:17:40 12° 344° (NNW) 21:19:46 145.827
RS-15 18 Dec 21:22:22 21:34:16 61° 40° (NE) 21:45:30 29.354- 29.394
SO-50 18 Dec 21:49:40 21:54:08 44° 43° (NE) 21:58:39 436.795
AO-85 18 Dec 21:54:43 21:58:34 44° 316° (NW) 22:02:40 145.980
BEESAT 3 18 Dec 21:58:56 21:59:31 10° 340° (NNW) 22:00:06 437.485
Max Valier Satellite 18 Dec 22:00:03 22:01:58 14° 270° (W) 22:03:55 145.860
PRISM 18 Dec 22:06:39 22:10:26 35° 98° (E) 22:14:10 437.425
EO-88 18 Dec 22:17:56 22:19:31 12° 271° (W) 22:21:06 145.990 - 145.960
VELOX 1 18 Dec 22:18:30 22:21:05 15° 59° (ENE) 22:23:42 145.980
FALCONSAT 3 18 Dec 22:19:10 22:20:29 12° 181° (S) 22:21:48 435.103
SPROUT 18 Dec 22:24:02 22:27:25 24° 64° (ENE) 22:30:50 437.525
LO-87 18 Dec 22:31:50 22:35:16 52° 260° (W) 22:38:45 145.935 - 145.965
EO-79 18 Dec 22:34:52 22:35:08 10° 87° (E) 22:35:24 145.935-145.965
FO-29 18 Dec 22:37:43 22:42:00 18° 311° (NW) 22:46:01 435.910
ESTCUBE 1 18 Dec 22:38:49 22:43:19 69° 258° (WSW) 22:47:52 437.505/2401.250
AIST 2D 18 Dec 22:44:50 22:48:09 36° 97° (E) 22:51:27 435.315
TIGRISAT 18 Dec 22:44:58 22:48:51 32° 293° (WNW) 22:52:48 435.000
BEESAT 2 18 Dec 22:49:12 22:50:14 11° 340° (NNW) 22:51:17 435.950
UNISAT 6 18 Dec 22:49:39 22:53:20 27° 294° (WNW) 22:57:05 437.425
POLYITAN 1 18 Dec 22:56:48 22:59:42 18° 91° (E) 23:02:36 437.675
PCSat 18 Dec 23:02:10 23:03:41 11° 11° (NNE) 23:05:13 145.827
DX 1 18 Dec 23:02:22 23:02:58 10° 54° (NE) 23:03:35 434.975-435.025
DUCHIFAT 1 18 Dec 23:20:17 23:23:42 23° 94° (E) 23:27:05 145.980
QB50P2 18 Dec 23:22:12 23:26:06 35° 97° (E) 23:29:59 145.880/145.840
SO-50 18 Dec 23:30:21 23:34:29 32° 243° (WSW) 23:38:39 436.795
RS-15 18 Dec 23:35:25 23:46:37 53° 247° (WSW) 23:57:16 29.354- 29.394
AO-85 18 Dec 23:38:02 23:40:06 13° 339° (NNW) 23:42:14 145.980
PRISM 18 Dec 23:42:12 23:45:33 24° 296° (WNW) 23:48:51 437.425
BUGSAT 1 18 Dec 23:45:24 23:46:00 10° 88° (E) 23:46:36 437.445
50 SAT 18 Dec 23:48:30 23:50:47 18° 66° (ENE) 23:53:03 437.505
NANOSAT C BR1 18 Dec 23:48:53 23:53:01 52° 100° (E) 23:57:08 145.865
VELOX 1 18 Dec 23:52:32 23:56:59 74° 257° (WSW) 00:01:27 145.980
SPROUT 18 Dec 23:59:08 00:03:06 39° 262° (W) 00:07:07 437.525
EO-79 19 Dec 00:07:16 00:11:31 89° 277° (W) 00:15:44 145.935-145.965
UKube-1 19 Dec 00:09:28 00:13:06 27° 64° (ENE) 00:16:44 .
AIST 2D 19 Dec 00:18:35 00:21:05 18° 295° (WNW) 00:23:34 435.315
POLYITAN 1 19 Dec 00:31:39 00:35:46 50° 289° (WNW) 00:39:52 437.675
DX 1 19 Dec 00:33:59 00:38:21 71° 72° (ENE) 00:42:43 434.975-435.025
PCSat 19 Dec 00:44:39 00:49:07 25° 37° (NE) 00:53:35 145.827
Gurwin Techsat 1B 19 Dec 00:47:49 00:52:02 23° 92° (E) 00:56:13 435.225
ITUPSAT 1 19 Dec 00:49:42 00:52:14 14° 56° (NE) 00:54:45 437.325
MOZHAYETS 4 19 Dec 00:53:55 00:57:09 20° 61° (ENE) 01:00:26
DUCHIFAT 1 19 Dec 00:55:34 00:59:27 37° 291° (WNW) 01:03:20 145.980
QB50P2 19 Dec 00:58:13 01:01:45 26° 295° (WNW) 01:05:17 145.880/145.840
YUBILEINY 19 Dec 01:02:33 01:09:24 26° 79° (ENE) 01:16:17 435.215
Oscar 19 19 Dec 01:08:47 01:13:48 45° 99° (E) 01:18:47 437.125/150
AO-91 19 Dec 01:14:57 01:18:16 43° 100° (E) 01:21:29 145.960
BEESAT 3 19 Dec 01:15:56 01:18:14 15° 28° (NNE) 01:20:31 437.485
BUGSAT 1 19 Dec 01:17:50 01:21:54 82° 287° (WNW) 01:25:59 437.445
50 SAT 19 Dec 01:19:47 01:22:32 27° 263° (W) 01:25:19 437.505
NANOSAT C BR1 19 Dec 01:25:26 01:28:21 19° 298° (WNW) 01:31:17 145.865
UKube-1 19 Dec 01:45:01 01:48:59 35° 262° (W) 01:53:00 .
EO-79 19 Dec 01:45:05 01:46:35 12° 303° (WNW) 01:48:07 145.935-145.965
BEESAT 19 Dec 01:53:19 01:57:53 49° 69° (ENE) 02:02:28 436.000
RS-15 19 Dec 01:53:22 01:55:47 11° 271° (W) 01:58:12 29.354- 29.394
BEESAT 2 19 Dec 02:06:59 02:09:22 15° 28° (NNE) 02:11:44 435.950
DX 1 19 Dec 02:12:46 02:15:01 14° 271° (W) 02:17:15 434.975-435.025
ITUPSAT 1 19 Dec 02:24:36 02:29:22 90° 279° (W) 02:34:10 437.325
Gurwin Techsat 1B 19 Dec 02:27:07 02:32:19 56° 291° (WNW) 02:37:30 435.225
PCSat 19 Dec 02:27:41 02:33:08 80° 238° (WSW) 02:38:33 145.827
CUBESAT XI-V 19 Dec 02:28:03 02:32:22 39° 68° (ENE) 02:36:45 437.345
MOZHAYETS 4 19 Dec 02:29:26 02:33:55 57° 259° (W) 02:38:27
ITAMSAT 1 19 Dec 02:32:00 02:35:16 17° 89° (E) 02:38:33 435.822/435.867
AO-7 19 Dec 02:41:58 02:49:35 37° 97° (E) 02:57:09 .
Oscar 19 19 Dec 02:48:29 02:52:56 29° 297° (WNW) 02:57:22 437.125/150
BEESAT 3 19 Dec 02:52:34 02:56:31 66° 50° (NE) 03:00:23 437.485
AO-91 19 Dec 02:52:38 02:54:25 14° 298° (WNW) 02:56:10 145.960
BUGSAT 1 19 Dec 02:55:59 02:56:34 10° 303° (WNW) 02:57:08 437.445
YUBILEINY 19 Dec 02:56:24 03:05:15 79° 281° (W) 03:14:10 435.215
AO-85 19 Dec 03:01:35 03:04:47 18° 29° (NNE) 03:08:08 145.980
M-CUBED/EXP-1 PRIME 19 Dec 03:21:16 03:25:22 35° 101° (ESE) 03:29:12 437.505
BEESAT 19 Dec 03:32:11 03:35:54 23° 267° (W) 03:39:39 436.000
BEESAT 2 19 Dec 03:43:50 03:47:52 65° 49° (NE) 03:51:50 435.950
KKS-1 19 Dec 03:45:19 03:49:35 47° 69° (ENE) 03:53:52 437.445
CUBESAT XI-V 19 Dec 04:05:51 04:09:50 27° 266° (W) 04:13:52 437.345
ITUPSAT 1 19 Dec 04:06:06 04:07:53 12° 273° (W) 04:09:40 437.325
Gurwin Techsat 1B 19 Dec 04:10:03 04:11:10 11° 310° (NW) 04:12:16 435.225
ITAMSAT 1 19 Dec 04:10:08 04:15:19 75° 288° (WNW) 04:20:28 435.822/435.867
PCSat 19 Dec 04:13:08 04:15:39 13° 257° (WSW) 04:18:08 145.827
STARS 19 Dec 04:14:59 04:19:04 39° 68° (ENE) 04:23:10 437.465
BEESAT 3 19 Dec 04:31:17 04:33:33 15° 248° (WSW) 04:35:47 437.485
AO-7 19 Dec 04:34:33 04:42:45 61° 297° (WNW) 04:50:56 .
NO-84 19 Dec 04:38:16 04:40:29 19° 132° (SE) 04:42:49 435.350 FM
AO-85 19 Dec 04:41:17 04:45:59 67° 49° (NE) 04:51:03 145.980
STRAND 1 19 Dec 04:45:32 04:48:27 15° 55° (NE) 04:51:21 437.568
M-CUBED/EXP-1 PRIME 19 Dec 04:55:42 04:59:37 30° 301° (WNW) 05:03:21 437.505
YUBILEINY 19 Dec 04:57:22 05:03:42 21° 305° (NW) 05:10:05 435.215
DOVE 4 19 Dec 05:01:13 05:05:42 87° 101° (E) 05:09:56 437.250
XW-2C 19 Dec 05:02:14 05:04:44 16° 91° (E) 05:07:13 145.795 - 145.815
